{"data":{"norad_id":64779,"epoch":"2026-09-20T16:32:41.730432Z","epoch_age_seconds":111211,"freshness":"FRESH","line1":"1 64779U 25147AA  26263.68937188  .00029432  00000+0  87823-3 0  9991","line2":"2 64779  53.1583  52.9800 0003336  99.0159 261.1221 15.34417998 68619","mean_motion":15.34417998,"eccentricity":0.0003336,"inclination_deg":53.1583,"raan_deg":52.98,"arg_perigee_deg":99.0159,"mean_anomaly_deg":261.1221,"bstar":0.00087823,"rev_number":6861,"period_min":93.84665729136,"perigee_km":460.36766042232,"apogee_km":464.93183333984,"semimajor_km":6840.7867468811,"source":"CELESTRAK","updated_at":"2026-09-21T09:00:35.441198Z"}}